Location: Lake Sonoma
(38.7200°N, 123.0564°W)
Time: 02:14:56
(UTC-07:00)

Amateur Radio Satellites - All Passes

Search period start: 26 March 2017 01:44
Search period end: 27 March 2017 01:44
Location: Lake Sonoma, 38.7200°N, 123.0564°W

Satellite Date Start Highest point End Downlink Frequencies (MHz)
Time Altitude Azimuth
QB50P2 26 Mar 01:48:12 01:51:43 26° 291° (WNW) 01:55:13 145.880/145.840
DX 1 26 Mar 01:54:49 01:58:45 34° 262° (W) 02:02:44 434.975-435.025
DUCHIFAT 1 26 Mar 02:01:29 02:04:53 24° 291° (WNW) 02:08:15 145.980
BUGSAT 1 26 Mar 02:19:44 02:23:43 44° 287° (WNW) 02:27:37 437.445
BEESAT 26 Mar 02:26:48 02:30:45 26° 68° (ENE) 02:34:42 436.000
UKube-1 26 Mar 02:37:35 02:40:21 17° 266° (W) 02:43:09 .
ITUPSAT 1 26 Mar 02:42:06 02:46:28 36° 70° (ENE) 02:50:51 437.325
MOZHAYETS 4 26 Mar 02:50:14 02:53:14 17° 66° (ENE) 02:56:15
AO-7 26 Mar 03:02:29 03:04:52 11° 88° (E) 03:07:16 .
Oscar 19 26 Mar 03:02:32 03:07:41 69° 286° (WNW) 03:12:48 437.125/150
ISS 26 Mar 03:07:01 03:09:41 22° 26° (NNE) 03:12:20 437.550
Tancredo 1 26 Mar 03:09:48 03:12:29 24° 28° (NNE) 03:15:10 437.200
ITAMSAT 1 26 Mar 03:11:40 03:13:26 12° 90° (E) 03:15:12 435.822/435.867
Gurwin Techsat 1B 26 Mar 03:11:58 03:17:19 82° 103° (ESE) 03:22:38 435.225
O/OREOS (USA 219) 26 Mar 03:32:08 03:36:46 75° 68° (ENE) 03:41:21 437.305
BEESAT 26 Mar 04:04:10 04:08:22 31° 263° (W) 04:12:37 436.000
KKS-1 26 Mar 04:11:24 04:15:09 27° 69° (ENE) 04:18:56 437.445
ITUPSAT 1 26 Mar 04:20:41 04:24:22 22° 265° (W) 04:28:04 437.325
MOZHAYETS 4 26 Mar 04:25:38 04:30:02 44° 261° (W) 04:34:26
ISS 26 Mar 04:43:07 04:46:19 48° 224° (SW) 04:49:30 437.550
Tancredo 1 26 Mar 04:45:41 04:48:41 37° 224° (SW) 04:51:40 437.200
ITAMSAT 1 26 Mar 04:48:13 04:53:25 75° 286° (WNW) 04:58:34 435.822/435.867
STARS 26 Mar 04:48:56 04:52:46 30° 70° (ENE) 04:56:39 437.465
AO-7 26 Mar 04:50:36 04:58:55 72° 106° (ESE) 05:07:10 .
Gurwin Techsat 1B 26 Mar 04:54:17 04:56:31 13° 300° (WNW) 04:58:45 435.225
CUBESAT XI-V 26 Mar 05:16:08 05:20:42 83° 255° (WSW) 05:25:19 437.345
M-CUBED/EXP-1 PRIME 26 Mar 05:22:19 05:23:56 12° 58° (ENE) 05:25:37 437.505
KKS-1 26 Mar 05:47:54 05:51:37 26° 264° (W) 05:55:22 437.445
DOVE 4 26 Mar 06:08:11 06:11:52 19° 91° (E) 06:15:29 437.250
STARS 26 Mar 06:25:36 06:29:06 23° 265° (W) 06:32:38 437.465
NO-84 26 Mar 06:28:49 06:30:27 14° 126° (SE) 06:32:05 435.350 FM
AO-85 26 Mar 06:32:48 06:36:44 73° 59° (ENE) 06:40:47 145.980
CUTE-I 26 Mar 06:35:17 06:39:20 21° 94° (E) 06:43:19 437.470
AO-7 26 Mar 06:44:30 06:50:55 26° 304° (NW) 06:57:21 .
XW-2F 26 Mar 06:52:57 06:56:15 29° 97° (E) 06:59:32 145.980 - 146.000
LilacSat-2 26 Mar 06:53:28 06:56:54 33° 97° (E) 07:00:18 437.200
M-CUBED/EXP-1 PRIME 26 Mar 06:54:23 06:57:53 47° 256° (WSW) 07:01:41 437.505
XW-2D 26 Mar 07:18:18 07:22:02 72° 100° (E) 07:25:46 145.860 - 145.880
NUDT-PHONESAT 26 Mar 07:19:23 07:23:00 55° 100° (E) 07:26:35 437.300
HO-68 26 Mar 07:20:58 07:24:54 15° 90° (E) 07:28:49 435.675
XW-2B 26 Mar 07:24:13 07:27:59 83° 103° (ESE) 07:31:43 145.730 - 145.750
KAITUO 1B 26 Mar 07:26:05 07:29:47 69° 101° (ESE) 07:33:27 145.475/437.950
BEESAT 3 26 Mar 07:31:20 07:34:55 30° 52° (NE) 07:38:29 437.485
XW-2C 26 Mar 07:34:25 07:38:09 71° 284° (WNW) 07:41:51 145.795 - 145.815
STRAND 1 26 Mar 07:34:49 07:39:54 65° 74° (ENE) 07:45:01 437.568
XW-2A 26 Mar 07:39:02 07:40:38 13° 93° (E) 07:42:12 145.665 - 145.685
DOVE 4 26 Mar 07:44:39 07:49:47 51° 288° (WNW) 07:54:50 437.250
CUTE 1.7 + AOD 2 26 Mar 07:45:06 07:47:36 15° 92° (E) 07:50:06 437.475
BEESAT 2 26 Mar 07:46:28 07:49:26 19° 48° (NE) 07:52:23 435.950
YUBILEINY 26 Mar 08:04:30 08:13:03 61° 91° (E) 08:21:35 435.215
NO-84 26 Mar 08:05:08 08:07:45 32° 321° (NW) 08:10:22 435.350 FM
CUTE-I 26 Mar 08:14:28 08:19:33 45° 289° (WNW) 08:24:35 437.470
UWE-3 26 Mar 08:27:46 08:29:23 12° 90° (E) 08:31:00 435.000/436.395/437.385
XW-2F 26 Mar 08:27:47 08:30:10 16° 292° (WNW) 08:32:31 145.980 - 146.000
LilacSat-2 26 Mar 08:28:41 08:30:53 15° 293° (WNW) 08:33:05 437.200
CUBEBUG 2 26 Mar 08:58:37 09:02:53 47° 99° (E) 09:06:59 437.445
AAUSAT CUBESAT 2 26 Mar 08:58:50 09:02:35 33° 97° (E) 09:06:21 437.432
Oscar 11 26 Mar 09:02:01 09:04:06 13° 92° (E) 09:06:09 .
HO-68 26 Mar 09:06:11 09:13:24 86° 286° (WNW) 09:20:34 435.675
ZACube-1 26 Mar 09:08:00 09:11:06 20° 94° (E) 09:14:10 437.345
BEESAT 3 26 Mar 09:09:14 09:12:20 22° 248° (WSW) 09:15:25 437.485
XW-2A 26 Mar 09:10:30 09:13:28 29° 288° (WNW) 09:16:24 145.665 - 145.685
SEEDS 26 Mar 09:13:09 09:17:20 75° 285° (WNW) 09:21:31 437.485
PRISM 26 Mar 09:14:58 09:18:13 24° 69° (ENE) 09:21:30 437.425
PCSat 26 Mar 09:16:38 09:20:45 22° 106° (ESE) 09:24:52 145.827
STRAND 1 26 Mar 09:16:58 09:19:29 14° 269° (W) 09:22:02 437.568
CUTE 1.7 + AOD 2 26 Mar 09:19:38 09:23:36 40° 287° (WNW) 09:27:32 437.475
BEESAT 2 26 Mar 09:23:34 09:27:21 39° 245° (WSW) 09:31:07 435.950
AO-73 26 Mar 09:35:57 09:39:52 37° 98° (E) 09:43:43 145.935
TIGRISAT 26 Mar 09:47:29 09:51:26 28° 69° (ENE) 09:55:23 435.000
UNISAT 6 26 Mar 09:57:09 10:01:28 37° 71° (ENE) 10:05:46 437.425
UWE-3 26 Mar 10:02:00 10:06:11 51° 286° (WNW) 10:10:15 435.000/436.395/437.385
YUBILEINY 26 Mar 10:03:10 10:10:21 28° 291° (WNW) 10:17:34 435.215
JUGNU 26 Mar 10:04:28 10:06:22 12° 179° (S) 10:08:16 437.505
FO-29 26 Mar 10:15:44 10:23:07 48° 69° (ENE) 10:30:07 435.910
DELFI C3 26 Mar 10:20:50 10:24:22 30° 97° (E) 10:27:54 145.870
AAUSAT CUBESAT 2 26 Mar 10:34:54 10:37:48 19° 292° (WNW) 10:40:42 437.432
Oscar 11 26 Mar 10:36:19 10:40:28 48° 286° (WNW) 10:44:36 .
CUBEBUG 2 26 Mar 10:36:37 10:39:02 15° 295° (WNW) 10:41:25 437.445
ZACube-1 26 Mar 10:43:43 10:47:25 30° 290° (WNW) 10:51:04 437.345
PRISM 26 Mar 10:50:04 10:53:23 24° 264° (W) 10:56:45 437.425
HO-68 26 Mar 10:56:00 11:00:05 16° 305° (NW) 11:04:11 435.675
PCSat 26 Mar 10:58:35 11:03:47 47° 303° (WNW) 11:09:02 145.827
POLYITAN 1 26 Mar 11:00:27 11:02:38 14° 65° (ENE) 11:04:49 437.675
QB50P2 26 Mar 11:04:29 11:07:11 17° 66° (ENE) 11:09:52 145.880/145.840
AO-73 26 Mar 11:13:07 11:15:47 17° 294° (WNW) 11:18:25 145.935
DUCHIFAT 1 26 Mar 11:16:53 11:19:39 17° 66° (ENE) 11:22:25 145.980
TIGRISAT 26 Mar 11:23:59 11:28:01 28° 264° (W) 11:32:03 435.000
UNISAT 6 26 Mar 11:34:45 11:38:14 21° 266° (W) 11:41:44 437.425
RS-15 26 Mar 11:46:50 11:56:08 28° 101° (ESE) 12:05:37 29.354- 29.394
AIST 2D 26 Mar 11:47:48 11:51:21 84° 77° (ENE) 11:54:54 435.315
DELFI C3 26 Mar 11:56:07 11:58:55 19° 292° (WNW) 12:01:43 145.870
LO-87 26 Mar 11:58:54 12:02:28 50° 99° (E) 12:06:01 145.935 - 145.965
FO-29 26 Mar 12:01:06 12:08:07 36° 264° (W) 12:14:53 435.910
NANOSAT C BR1 26 Mar 12:01:10 12:05:22 60° 75° (ENE) 12:09:35 145.865
EO-79 26 Mar 12:05:34 12:09:49 74° 77° (ENE) 12:14:07 145.935-145.965
SRMSAT 26 Mar 12:07:11 12:09:00 11° 176° (S) 12:10:50 437.500
VELOX 1 26 Mar 12:31:12 12:34:07 17° 93° (E) 12:37:01 145.980
POLYITAN 1 26 Mar 12:33:48 12:37:58 50° 260° (W) 12:42:10 437.675
QB50P2 26 Mar 12:38:35 12:42:37 41° 261° (W) 12:46:41 145.880/145.840
Oscar 19 26 Mar 12:40:53 12:44:15 18° 63° (ENE) 12:47:38 437.125/150
DUCHIFAT 1 26 Mar 12:51:01 12:55:00 39° 262° (W) 12:59:00 145.980
ESTCUBE 1 26 Mar 12:53:17 12:57:48 78° 284° (WNW) 13:02:19 437.505/2401.250
Gurwin Techsat 1B 26 Mar 12:54:55 12:57:42 14° 61° (ENE) 13:00:29 435.225
50 SAT 26 Mar 12:56:38 12:59:00 17° 95° (E) 13:01:21 437.505
NO-84 26 Mar 13:03:56 13:04:15 10° 27° (NNE) 13:04:35 435.350 FM
BUGSAT 1 26 Mar 13:07:12 13:11:26 80° 259° (W) 13:15:42 437.445
SPROUT 26 Mar 13:15:26 13:19:35 46° 99° (E) 13:23:41 437.525
NANOSAT C BR1 26 Mar 13:40:35 13:41:25 10° 269° (W) 13:42:16 145.865
DX 1 26 Mar 13:43:47 13:47:58 43° 99° (E) 13:52:08 434.975-435.025
RS-15 26 Mar 13:55:14 14:07:14 80° 302° (WNW) 14:19:42 29.354- 29.394
SRMSAT 26 Mar 13:55:47 13:57:16 11° 186° (S) 13:58:43 437.500
AO-7 26 Mar 13:59:11 14:04:30 19° 52° (NE) 14:09:47 .
VELOX 1 26 Mar 14:06:31 14:10:42 41° 288° (WNW) 14:14:53 145.980
Oscar 19 26 Mar 14:18:08 14:23:07 53° 260° (W) 14:28:08 437.125/150
UKube-1 26 Mar 14:23:54 14:28:16 87° 107° (ESE) 14:32:35 .
ITAMSAT 1 26 Mar 14:27:34 14:30:59 18° 63° (ENE) 14:34:25 435.822/435.867
50 SAT 26 Mar 14:29:08 14:32:01 24° 289° (WNW) 14:34:54 437.505
Gurwin Techsat 1B 26 Mar 14:31:42 14:37:00 73° 257° (WSW) 14:42:19 435.225
NO-84 26 Mar 14:39:05 14:42:17 66° 43° (NE) 14:45:47 435.350 FM
SPROUT 26 Mar 14:52:41 14:55:04 15° 295° (WNW) 14:57:28 437.525
SO-50 26 Mar 15:03:57 15:08:29 54° 117° (ESE) 15:12:59 436.795
DX 1 26 Mar 15:21:00 15:23:48 17° 295° (WNW) 15:26:35 434.975-435.025
AO-7 26 Mar 15:47:44 15:56:05 85° 70° (ENE) 16:04:25 .
BEESAT 26 Mar 16:04:46 16:09:31 73° 102° (ESE) 16:14:15 436.000
ITAMSAT 1 26 Mar 16:04:51 16:09:58 56° 259° (W) 16:15:08 435.822/435.867
RS-15 26 Mar 16:11:57 16:22:04 29° 329° (NNW) 16:32:23 29.354- 29.394
NO-84 26 Mar 16:18:47 16:19:32 11° 235° (SW) 16:20:18 435.350 FM
ITUPSAT 1 26 Mar 16:21:01 16:25:47 78° 286° (WNW) 16:30:31 437.325
MOZHAYETS 4 26 Mar 16:21:42 16:26:04 45° 99° (E) 16:30:25
SO-50 26 Mar 16:45:57 16:49:15 19° 314° (NW) 16:52:32 436.795
DOVE 4 26 Mar 17:13:03 17:15:43 15° 63° (ENE) 17:18:30 437.250
CUBESAT XI-V 26 Mar 17:14:17 17:18:14 27° 96° (E) 17:22:09 437.345
XW-2F 26 Mar 17:34:02 17:35:49 13° 67° (ENE) 17:37:37 145.980 - 146.000
LilacSat-2 26 Mar 17:35:09 17:37:20 15° 67° (ENE) 17:39:32 437.200
KKS-1 26 Mar 17:39:07 17:43:35 65° 101° (ESE) 17:48:01 437.445
O/OREOS (USA 219) 26 Mar 17:42:52 17:47:22 71° 292° (WNW) 17:51:56 437.305
AO-7 26 Mar 17:44:19 17:49:40 18° 268° (W) 17:55:03 .
BEESAT 26 Mar 17:44:54 17:46:39 12° 299° (WNW) 17:48:25 436.000
HO-68 26 Mar 17:51:46 17:53:33 11° 51° (NE) 17:55:19 435.675
CUTE-I 26 Mar 17:55:32 18:00:14 32° 68° (ENE) 18:04:56 437.470
NUDT-PHONESAT 26 Mar 17:57:59 18:00:49 21° 70° (ENE) 18:03:39 437.300
XW-2D 26 Mar 17:58:24 18:01:39 27° 71° (ENE) 18:04:54 145.860 - 145.880
MOZHAYETS 4 26 Mar 17:59:57 18:02:51 17° 295° (WNW) 18:05:44
XW-2B 26 Mar 18:04:12 18:07:34 31° 72° (ENE) 18:10:56 145.730 - 145.750
KAITUO 1B 26 Mar 18:05:06 18:08:13 25° 71° (ENE) 18:11:19 145.475/437.950
PCSat 26 Mar 18:05:27 18:08:52 17° 45° (NE) 18:12:17 145.827
XW-2C 26 Mar 18:14:07 18:17:43 42° 74° (ENE) 18:21:19 145.795 - 145.815
STARS 26 Mar 18:15:01 18:19:27 70° 102° (ESE) 18:23:49 437.465
YUBILEINY 26 Mar 18:16:54 18:24:03 28° 69° (ENE) 18:31:11 435.215
RS-15 26 Mar 18:32:28 18:40:37 19° 5° (N) 18:48:43 29.354- 29.394
M-CUBED/EXP-1 PRIME 26 Mar 18:35:05 18:37:31 14° 96° (E) 18:39:58 437.505
DOVE 4 26 Mar 18:48:15 18:52:48 58° 261° (W) 18:57:41 437.250
CUBESAT XI-V 26 Mar 18:51:33 18:55:31 28° 291° (WNW) 18:59:28 437.345
XW-2F 26 Mar 19:06:01 19:09:36 40° 262° (W) 19:13:11 145.980 - 146.000
LilacSat-2 26 Mar 19:07:47 19:11:19 35° 262° (W) 19:14:51 437.200
KKS-1 26 Mar 19:17:49 19:19:34 12° 297° (WNW) 19:21:18 437.445
UWE-3 26 Mar 19:24:40 19:25:25 10° 63° (ENE) 19:26:10 435.000/436.395/437.385
NUDT-PHONESAT 26 Mar 19:31:34 19:34:36 23° 264° (W) 19:37:38 437.300
HO-68 26 Mar 19:32:50 19:39:51 62° 70° (ENE) 19:46:53 435.675
XW-2D 26 Mar 19:33:10 19:35:50 18° 266° (W) 19:38:30 145.860 - 145.880
CUTE-I 26 Mar 19:35:28 19:40:11 31° 263° (W) 19:44:57 437.470
XW-2B 26 Mar 19:39:26 19:41:49 16° 267° (W) 19:44:12 145.730 - 145.750
KAITUO 1B 26 Mar 19:39:30 19:42:12 19° 265° (W) 19:44:54 145.475/437.950
XW-2A 26 Mar 19:39:46 19:43:11 65° 76° (ENE) 19:46:37 145.665 - 145.685
STRAND 1 26 Mar 19:47:19 19:51:26 24° 95° (E) 19:55:31 437.568
Tancredo 1 26 Mar 19:47:21 19:48:04 11° 128° (SE) 19:48:46 437.200
PCSat 26 Mar 19:47:28 19:52:55 80° 244° (WSW) 19:58:19 145.827
AAUSAT CUBESAT 2 26 Mar 19:48:17 19:51:09 19° 68° (ENE) 19:54:02 437.432
XW-2C 26 Mar 19:50:41 19:52:07 12° 268° (W) 19:53:31 145.795 - 145.815
STARS 26 Mar 19:53:58 19:55:10 11° 298° (WNW) 19:56:22 437.465
CUBEBUG 2 26 Mar 19:54:42 19:59:01 36° 71° (ENE) 20:03:20 437.445
ZACube-1 26 Mar 20:02:53 20:05:35 16° 66° (ENE) 20:08:15 437.345
SEEDS 26 Mar 20:03:04 20:07:10 60° 75° (ENE) 20:11:16 437.485
M-CUBED/EXP-1 PRIME 26 Mar 20:07:38 20:12:13 59° 291° (WNW) 20:16:48 437.505
CUTE 1.7 + AOD 2 26 Mar 20:10:16 20:14:27 70° 259° (W) 20:18:40 437.475
YUBILEINY 26 Mar 20:12:52 20:21:23 61° 269° (W) 20:29:54 435.215
AO-73 26 Mar 20:29:53 20:33:41 27° 70° (ENE) 20:37:27 145.935
AO-85 26 Mar 20:45:59 20:49:59 32° 115° (ESE) 20:53:46 145.980
RS-15 26 Mar 20:47:15 20:58:24 37° 39° (NE) 21:09:06 29.354- 29.394
UWE-3 26 Mar 20:56:31 21:01:11 81° 258° (WSW) 21:05:49 435.000/436.395/437.385
DELFI C3 26 Mar 21:06:07 21:08:22 15° 67° (ENE) 21:10:39 145.870
Tancredo 1 26 Mar 21:20:38 21:23:46 67° 323° (NW) 21:26:56 437.200
ISS 26 Mar 21:21:40 21:24:54 76° 319° (NW) 21:28:11 437.550
HO-68 26 Mar 21:22:32 21:27:58 23° 266° (W) 21:33:27 435.675
AAUSAT CUBESAT 2 26 Mar 21:22:43 21:26:23 31° 263° (W) 21:30:04 437.432
STRAND 1 26 Mar 21:26:00 21:30:40 37° 291° (WNW) 21:35:18 437.568
Oscar 11 26 Mar 21:29:08 21:33:27 78° 259° (W) 21:37:46 .
CUBEBUG 2 26 Mar 21:32:00 21:35:40 22° 266° (W) 21:39:21 437.445
ZACube-1 26 Mar 21:37:01 21:41:26 49° 260° (W) 21:45:49 437.345
AO-73 26 Mar 22:06:00 22:09:49 26° 264° (W) 22:13:36 145.935
AO-85 26 Mar 22:26:48 22:30:23 24° 309° (NW) 22:33:48 145.980
PRISM 26 Mar 22:31:42 22:35:43 45° 100° (E) 22:39:43 437.425
LO-87 26 Mar 22:34:38 22:37:01 17° 69° (ENE) 22:39:26 145.935 - 145.965
DELFI C3 26 Mar 22:39:12 22:42:50 37° 262° (W) 22:46:30 145.870
BEESAT 3 26 Mar 22:56:39 23:00:33 82° 120° (ESE) 23:04:32 437.485
Tancredo 1 26 Mar 22:58:42 23:00:24 14° 341° (NNW) 23:02:06 437.200
ISS 26 Mar 22:59:52 23:01:51 15° 340° (NNW) 23:03:50 437.550
RS-15 26 Mar 22:59:52 23:12:05 76° 244° (WSW) 23:23:42 29.354- 29.394
FO-29 26 Mar 23:13:01 23:18:27 37° 96° (E) 23:23:24 435.910
BEESAT 2 26 Mar 23:13:13 23:16:58 45° 116° (ESE) 23:20:49 435.950
TIGRISAT 26 Mar 23:16:12 23:20:36 68° 101° (ESE) 23:24:51 435.000
UNISAT 6 26 Mar 23:26:29 23:30:55 84° 281° (W) 23:35:12 437.425
VELOX 1 26 Mar 23:28:05 23:30:15 14° 64° (ENE) 23:32:25 145.980
SO-50 26 Mar 23:36:38 23:40:44 33° 51° (NE) 23:44:48 436.795
NANOSAT C BR1 26 Mar 23:49:55 23:50:23 10° 90° (E) 23:50:51 145.865
ESTCUBE 1 26 Mar 23:51:06 23:55:34 80° 75° (ENE) 00:00:02 437.505/2401.250
EO-79 26 Mar 23:53:20 23:55:19 13° 92° (E) 23:57:17 145.935-145.965
LO-87 27 Mar 00:07:13 00:10:16 26° 264° (W) 00:13:22 145.935 - 145.965
SPROUT 27 Mar 00:07:29 00:11:14 30° 70° (ENE) 00:14:59 437.525
PRISM 27 Mar 00:08:21 00:10:35 14° 295° (WNW) 00:12:50 437.425
POLYITAN 1 27 Mar 00:20:13 00:23:50 27° 96° (E) 00:27:25 437.675
QB50P2 27 Mar 00:24:41 00:28:32 33° 97° (E) 00:32:20 145.880/145.840
DUCHIFAT 1 27 Mar 00:36:12 00:40:02 33° 97° (E) 00:43:50 145.980
BEESAT 3 27 Mar 00:37:36 00:38:42 11° 318° (NW) 00:39:49 437.485
DX 1 27 Mar 00:38:00 00:41:49 31° 70° (ENE) 00:45:41 434.975-435.025
AIST 2D 27 Mar 00:47:23 00:50:50 62° 285° (WNW) 00:54:16 435.315
BUGSAT 1 27 Mar 00:51:34 00:54:08 16° 93° (E) 00:56:41 437.445
BEESAT 2 27 Mar 00:52:21 00:54:59 17° 314° (NW) 00:57:38 435.950
TIGRISAT 27 Mar 00:55:35 00:56:38 11° 298° (WNW) 00:57:41 435.000
FO-29 27 Mar 00:58:25 01:03:20 27° 296° (WNW) 01:07:52 435.910
50 SAT 27 Mar 01:00:27 01:03:54 85° 259° (W) 01:07:21 437.505
VELOX 1 27 Mar 01:01:54 01:06:12 55° 260° (W) 01:10:34 145.980
RS-15 27 Mar 01:15:57 01:22:16 16° 264° (W) 01:28:29 29.354- 29.394
UKube-1 27 Mar 01:16:41 01:20:55 60° 74° (ENE) 01:25:10 .
SO-50 27 Mar 01:17:22 01:21:02 25° 248° (WSW) 01:24:40 436.795
NANOSAT C BR1 27 Mar 01:22:17 01:26:27 59° 286° (WNW) 01:30:34 145.865
EO-79 27 Mar 01:27:15 01:31:20 47° 287° (WNW) 01:35:21 145.935-145.965
